LT-1 01A

导读 | 豆包AI

LT-1 01A(陆地探测一号01A星)是中国陆地探测一号L波段差分干涉SAR卫星星座的首颗卫星,于2022年1月26日在酒泉卫星发射中心发射,设计寿命8年,运行于607千米高度的准太阳同步近圆轨道。卫星搭载大尺寸L波段多极化SAR载荷,可实现毫米级地表形变监测,最高分辨率达3米,适配地形测绘、灾害防控、林业调查等多领域应用,双星协同可将观测回归周期缩短至4天,覆盖全球绝大多数区域。

基本信息
目录编号:
51284
目录名称:
LT-1 01A
国际标识:
2022-007A
轨道中心:
EARTH
卫星名称:
LT-1 01A
卫星全名:
--
卫星状态:
在轨 (已飞行1581 天)
发射日期:
2022-01-25 UTC
国别 :
中国 (CN)
星等 :
--
轨道信息
数据来源 国际轨道数据 AOE轨道数据
星历时间 2026-05-24T12:20:47+0800
22小时前
查看轨道信息
2026-05-18T17:00:00+0800
6天前
查看轨道信息
半长轴 6980.995km 6980.991km
偏心率 0.0001607 0.0001776
轨道倾角 97.810° 97.809°
近地点辐角 90.484° 99.571°
升交点赤经 151.942° 146.220°
平近点角 269.657° 128.785°
近地点 601.736km 601.614km
远地点 603.98km 604.094km
周期 96.747分钟 96.747分钟
每日圈数 14.884244 14.884259
详细信息
使用方式:
暂无
2D轨道图
3D轨道图
轨道高度分析图
轨道倾角分析图
轨道综合分析图
查看轨道综合分析图